Regional Weather Roundup
Issued by NWS

Home | Current Version | Previous Version | Graphics & Text | Print | Product List | Glossary On
Versions: 1 2 3 4 5 6 7 8 9 10 11 12 13 14 15 16 17 18 19 20 21 22 23 24 25 26 27 28 29 30 31 32 33 34 35 36 37 38 39 40 41 42 43 44 45 46 47 48 49 50
000
ASUS45 KPSR 272310
RWRAZ

ARIZONA HOURLY REGIONAL WEATHER ROUNDUP
NATIONAL WEATHER SERVICE PHOENIX AZ
400 PM MST FRI MAY 27 2016

NOTE: FAIR INDICATES FEW OR NO CLOUDS BELOW 12,000 FEET WITH NO
SIGNIFICANT WEATHER AND/OR OBSTRUCTIONS TO VISIBILITY.

AZZ001>003-036-280000-
NORTHWEST ARIZONA

CITY           SKY/WX    TMP DP  RH WIND       PRES   REMARKS
BULLHEAD CITY  MOSUNNY   93  34  12 MISG      29.71F
KINGMAN        SUNNY     81  27  14 W9        29.86F
$$

AZZ004>008-015-016-018-280000-
NORTH CENTRAL ARIZONA

CITY           SKY/WX    TMP DP  RH WIND       PRES   REMARKS
GRAND CANYON   CLOUDY    67  26  21 VRB7G18   30.01F
WILLIAMS       PTSUNNY   64  25  22 NW10      30.09F
PRESCOTT       PTSUNNY   75  24  15 SW15      29.93F
FLAGSTAFF      PTSUNNY   62  25  24 W10G16    30.04S
PAYSON         MOSUNNY   73  25  16 SW8G16    29.96F
PAGE           MOSUNNY   79  25  13 W12G18    29.84F
$$

AZZ009>014-017-280000-
NORTHEAST ARIZONA

CITY           SKY/WX    TMP DP  RH WIND       PRES   REMARKS
WINSLOW        MOSUNNY   78  28  16 W10       29.91F
SAINT JOHNS    MOSUNNY   74  21  13 NW15G22   29.93F
WINDOW ROCK    PTSUNNY   69  19  15 W20G28    29.97S
SHOW LOW       MOSUNNY   64  23  20 NW9       30.01S
$$

AZZ023-280000-
GREATER PHOENIX AREA

CITY           SKY/WX    TMP DP  RH WIND       PRES   REMARKS
PHOENIX        MOSUNNY   91  28  10 CALM      29.73F
BUCKEYE        SUNNY     90  28  11 S8        29.76F
GLENDALE       MOSUNNY   91  30  11 SE8G18    29.76F
LUKE AFB       SUNNY     93  28  10 SW14G26   29.73F
DEER VALLEY    SUNNY     89  30  12 SW12G22   29.75F
SCOTTSDALE     SUNNY     90  28  11 SW10      29.77F
MESA-GATEWAY   SUNNY     88  30  12 SW9       29.78F
CHANDLER       SUNNY     90  27  10 NW7       29.76F
$$

AZZ027-028-280000-
SOUTHWEST MARICOPA COUNTY AND PINAL COUNTY

CITY           SKY/WX    TMP DP  RH WIND       PRES   REMARKS
CASA GRANDE    SUNNY     90  28  11 W6        29.79F
GILA BEND      FAIR      91  27  10 NW13      29.73F
$$

AZZ503-504-507>509-280000-
SOUTHEAST ARIZONA

CITY           SKY/WX    TMP DP  RH WIND       PRES   REMARKS
TUCSON         SUNNY     86  21   9 VRB5      29.84F
DAVIS-MONTHAN  SUNNY     85  20   9 SW6       29.82F
RYAN FIELD     SUNNY     88  25  10 SW7       29.83F
NOGALES        SUNNY     84  18   8 S12       29.88F
SIERRA VISTA   SUNNY     80  13   8 W17       29.92F
DOUGLAS        SUNNY     84  14   7 W14G24    29.89F
SAFFORD        SUNNY     86  22   9 N9        29.81F
$$

AZZ020-021-025-026-031-280000-
SOUTHWEST ARIZONA

CITY           SKY/WX    TMP DP  RH WIND       PRES   REMARKS
YUMA           SUNNY     92  35  13 MISG      29.73F
$$

CAZ031-033-041-043-047-048-061-280000-
SOUTHERN CALIFORNIA

CITY           SKY/WX    TMP DP  RH WIND       PRES   REMARKS
DOWNTOWN L.A.  SUNNY     71  56  58 W9        29.84F
L.A. AIRPORT   MOSUNNY   67  55  65 W17       29.86F
SAN DIEGO      MOSUNNY   68  55  63 SW13      29.88F
BURBANK        SUNNY     75  54  47 S10       29.83F
ONTARIO        MOSUNNY   81  51  35 W15G23    29.81F
RIVERSIDE      SUNNY     82  51  34 W12G21    29.81F
PALM SPRINGS   SUNNY     95  37  13 SE12      29.72
EL CENTRO NAS  MOSUNNY   94  32  11 VRB6      29.72F
IMPERIAL       SUNNY     94  35  12 CALM      29.70F
BLYTHE         SUNNY     93  39  15 E7        29.71F
NEEDLES        SUNNY     96  31  10 VRB5      29.70F
$$

NVZ020-UTZ003-280000-
SOUTHERN NEVADA-UTAH

CITY           SKY/WX    TMP DP  RH WIND       PRES   REMARKS
LAS VEGAS      MOSUNNY   87  27  11 VRB3      29.73F
SALT LAKE CITY MOSUNNY   69  39  33 S14       29.89F
$$

NMZ009-TXZ055-280000-
NEW MEXICO-WEST TEXAS

CITY           SKY/WX    TMP DP  RH WIND       PRES   REMARKS
ALBUQUERQUE    PTSUNNY   74  22  14 W14       29.86S
EL PASO        SUNNY     84  18   8 SW13G25   29.85S
$$


........................KEY........................
SKY/WX - SKY CONDITION/WEATHER
TMP    - TEMPERATURE IN FAHRENHEIT
DP     - DEW POINT IN FAHRENHEIT
RH     - RELATIVE HUMIDITY IN PERCENT
WIND   - DIRECTION AND SPEED IN MILES PER HOUR (MPH)
VRB    - VARIABLE WIND DIRECTION
PRES   - MEAN SEA LEVEL PRESSURE IN INCHES OF MERCURY
         F - FALLING PRESSURE   R - RISING PRESSURE
         S - STEADY PRESSURE
VSB    - VISIBILITY IN MILES
HX     - HEAT INDEX IN FAHRENHEIT
WCI    - WIND CHILL INDEX IN FAHRENHEIT
TC     - TEMPERATURE IN CELSIUS WHICH IS ALSO KNOWN AS
         TEMPERATURE IN CENTIGRADE
AFB    - AIR FORCE BASE
         LUKE AFB IS LUKE AIR FORCE BASE
         DAVIS-MONTHAN IS DAVIS-MONTHAN AIR FORCE BASE
NAS    - NAVAL AIR STATION
         EL CENTRO NAS IS EL CENTRO NAVAL AIR STATION
N/A    - NOT AVAILABLE




USA.gov is the U.S. government's official web portal to all federal, state and local government web resources and services.